Погода в Усть-Нере

Россия / Республика Саха (Якутия)     64°34′03″N   143°13′55″E
темп.,
°C
ветер,
м/с
пор.,
м/с
влажн.,
%
обл.,
%
осадки,
мм/ч
давл.,
гПа
погр.,
м
1 марта, пн
пн101:00−35ю0010051 0.0 102219
04:00−35зюз1110062 0.0 102219
07:00−36зюз1110070 0.0 102219
10:00−31зюз119777 0.0 102152
13:00−29з219398 0.0 1019176
16:00−30зюз129794 0.0 101920
19:00−35зюз111000 0.0 102119
22:00−36зюз1110011 0.0 102219
2 марта, вт
вт201:00−36зсз0110043 0.0 102219
04:00−37с0010042 0.0 102319
07:00−37ссз0010080 0.0 102419
10:00−32св119683 0.0 102354
13:00−29св2292100 0.0 1022193
16:00−29св2296100 0.0 102189
19:00−32св2294100 0.0 102225
22:00−31св2292100 0.0 102232
3 марта, ср
ср301:00−31всв2295100 0.0 102231
04:00−30св2399100 0.1 102052
07:00−31всв2299100 0.2 101942
10:00−29всв2297100 0.3 1018123
13:00−27всв3394100 0.1 1015254
16:00−28св3398100 0.1 101376
19:00−33св2310097 0.0 101420
22:00−35ссв2210088 0.0 101319
4 марта, чт
чт401:00−35ссв229996 0.0 101119
04:00−36с229998 0.0 101026
07:00−36с2298100 0.0 100928
10:00−34с2295100 0.1 1007169
13:00−31ссз2291100 0.1 1005364
16:00−30сз2292100 0.3 1005349
19:00−33з2299100 0.1 100624
22:00−33зюз3399100 0.2 100763
5 марта, пт
пт501:00−36зюз33100100 0.1 100858
04:00−36зюз3398100 0.1 1009100
07:00−37зюз3398100 0.1 1009104
10:00−36зюз3396100 0.1 1010216
13:00−35зюз3392100 0.0 1009320
16:00−35зюз3394100 0.1 1010309
19:00−36зюз3398100 0.1 101158
22:00−37зюз3398100 0.1 101354